ASTRO-H (HITOMI)

Last updated on Wed Oct 15 2025 00:02:14 GMT+0000 (Coordinated Universal Time)

1 41337U 16012A 25287.16127126 .00004765 00000+0 28961-3 0 9998 2 41337 30.9994 221.2975 0010224 298.9993 60.9620 15.08805404530073
UTC large
Height (km)
Speed (km/s)
/
Latitude / Longitude
Inclination (degrees)
Orbital Period (minutes)
Azimuth
Elevation
Range (km)
Doppler Factor

Next 0 passes for location: London (51.5072 / 0.1276)

Sorry there are no passes over London.